Weather History for Moncks Corner, SC

Change the Weather History Date:

Monday, January 7, 2013

  Actual Average (KCHS) Record (KCHS)
Temperature  
Mean Temperature 49 °F 48 °F  
Max Temperature 57 °F 59 °F 80 °F (1991)
Min Temperature 41 °F 37 °F 17 °F (2014)
Degree Days  
Heating Degree Days 16 17  
Month to date heating degree days 119  
Since 1 July heating degree days 857  
Cooling Degree Days 0 0  
Month to date cooling degree days 0  
Year to date cooling degree days 0  
Moisture  
Dew Point 36 °F    
Average Humidity 65    
Maximum Humidity 87    
Minimum Humidity 38    
Precipitation  
Precipitation 0.00 in 0.12 in 2.69 in (1990)
Month to date precipitation 0.80  
Year to date precipitation 0.80  
Sea Level Pressure  
Sea Level Pressure 30.33 in    
Wind  
Wind Speed 4 mph (NE)    
Max Wind Speed 12 mph    
Max Gust Speed 18 mph    
Visibility 9 miles    
Events      
T = Trace of Precipitation, MM = Missing Value Source: NWS Daily Summary

Daily Weather History Graph

Daily Weather History Graph

Search for Another Location

Airport:

Trip Planner

Search our weather history database for the weather conditions in past years. The results will help you decide how hot, cold, wet, or windy it might be!

Date:

Astronomy

Jan. 07, 2013 Rise Set
Actual Time 7:24 AM EST 5:29 PM EST
Civil Twilight 6:57 AM EST 5:56 PM EST
Nautical Twilight 6:26 AM EST 6:26 PM EST
Astronomical Twilight 5:56 AM EST 6:56 PM EST
Moon 2:49 AM EST (1/7) 1:36 PM EST (1/7)
Length of Visible Light 10h 59m
Length of Day
10h 04m
Waning Crescent, 23% of the Moon is Illuminated
Jan 7
Waning Crescent
Jan 11
New
Jan 18
First Quarter
Jan 26
Full
Feb 3
Last Quarter

Hourly Weather History & Observations

Time (EST) Temp. Windchill Dew Point Humidity Pressure Visibility Wind Dir Wind Speed Gust Speed Precip Events Conditions
12:35 AM 48.2 °F - 42.8 °F 82% 30.18 in 7.0 mi Calm Calm - N/A   Scattered Clouds
12:55 AM 46.4 °F - 41.0 °F 81% 30.19 in 10.0 mi Calm Calm - N/A   Clear
1:15 AM 46.4 °F 45.2 °F 41.0 °F 81% 30.19 in 10.0 mi NW 3.5 mph - N/A   Clear
1:35 AM 46.4 °F 45.2 °F 41.0 °F 81% 30.20 in 10.0 mi NW 3.5 mph - N/A   Clear
1:55 AM 46.4 °F - 41.0 °F 81% 30.20 in 7.0 mi Calm Calm - N/A   Clear
2:35 AM 44.6 °F 42.2 °F 41.0 °F 87% 30.21 in 10.0 mi North 4.6 mph - N/A   Clear
2:55 AM 46.4 °F 42.9 °F 41.0 °F 81% 30.21 in 10.0 mi North 6.9 mph - N/A   Clear
3:15 AM 48.2 °F - 39.2 °F 71% 30.22 in 10.0 mi North 10.4 mph 17.3 mph N/A   Mostly Cloudy
3:35 AM 46.4 °F 42.4 °F 39.2 °F 76% 30.22 in 10.0 mi North 8.1 mph - N/A   Scattered Clouds
3:55 AM 46.4 °F 42.9 °F 39.2 °F 76% 30.22 in 7.0 mi NNE 6.9 mph - N/A   Clear
4:15 AM 46.4 °F 44.3 °F 39.2 °F 76% 30.22 in 10.0 mi NNE 4.6 mph - N/A   Clear
5:15 AM 44.6 °F 40.7 °F 37.4 °F 76% 30.24 in 10.0 mi NNE 6.9 mph - N/A   Clear
5:35 AM 44.6 °F 42.2 °F 37.4 °F 76% 30.25 in 10.0 mi NNE 4.6 mph - N/A   Clear
5:55 AM 44.6 °F 42.2 °F 37.4 °F 76% 30.26 in 7.0 mi NNE 4.6 mph - N/A   Clear
6:15 AM 42.8 °F 40.1 °F 37.4 °F 81% 30.27 in 10.0 mi NNE 4.6 mph - N/A   Clear
6:35 AM 42.8 °F 40.1 °F 37.4 °F 81% 30.28 in 10.0 mi NNE 4.6 mph - N/A   Clear
6:55 AM 44.6 °F 41.4 °F 37.4 °F 76% 30.28 in 10.0 mi NNE 5.8 mph - N/A   Clear
7:15 AM 44.6 °F 41.4 °F 37.4 °F 76% 30.29 in 10.0 mi NNE 5.8 mph - N/A   Clear
7:55 AM 44.6 °F 40.2 °F 35.6 °F 71% 30.31 in 10.0 mi NE 8.1 mph - N/A   Clear
8:15 AM 46.4 °F 42.4 °F 35.6 °F 66% 30.32 in 7.0 mi NNE 8.1 mph - N/A   Clear
8:55 AM 46.4 °F 42.9 °F 35.6 °F 66% 30.34 in 10.0 mi NNE 6.9 mph - N/A   Clear
9:15 AM 48.2 °F - 35.6 °F 62% 30.35 in 7.0 mi NNE 8.1 mph - N/A   Clear
9:35 AM 50.0 °F - 35.6 °F 58% 30.37 in 7.0 mi NNE 8.1 mph - N/A   Clear
9:55 AM 51.8 °F - 35.6 °F 54% 30.38 in 7.0 mi NE 6.9 mph - N/A   Clear
10:15 AM 51.8 °F - 35.6 °F 54% 30.39 in 10.0 mi NNE 6.9 mph - N/A   Clear
10:55 AM 53.6 °F - 33.8 °F 47% 30.39 in 10.0 mi NNE 10.4 mph - N/A   Clear
11:15 AM 53.6 °F - 32.0 °F 44% 30.38 in 7.0 mi NE 10.4 mph - N/A   Clear
11:35 AM 55.4 °F - 32.0 °F 41% 30.37 in 7.0 mi ENE 10.4 mph - N/A   Clear
11:55 AM 55.4 °F - 32.0 °F 41% 30.36 in 10.0 mi East 9.2 mph - N/A   Clear
12:15 PM 53.6 °F - 32.0 °F 44% 30.36 in 7.0 mi ENE 8.1 mph - N/A   Clear
12:35 PM 55.4 °F - 33.8 °F 44% 30.36 in 10.0 mi NE 6.9 mph - N/A   Clear
12:55 PM 55.4 °F - 33.8 °F 44% 30.35 in 7.0 mi NE 3.5 mph - N/A   Clear
1:35 PM 57.2 °F - 32.0 °F 38% 30.35 in 7.0 mi NNE 6.9 mph - N/A   Clear
2:15 PM 57.2 °F - 32.0 °F 38% 30.33 in 7.0 mi ENE 11.5 mph - N/A   Clear
2:35 PM 57.2 °F - 32.0 °F 38% 30.33 in 10.0 mi ENE 10.4 mph 16.1 mph N/A   Clear
2:55 PM 57.2 °F - 32.0 °F 38% 30.33 in 7.0 mi NE 9.2 mph - N/A   Clear
3:15 PM 57.2 °F - 32.0 °F 38% 30.34 in 10.0 mi East 8.1 mph 18.4 mph N/A   Clear
3:35 PM 57.2 °F - 32.0 °F 38% 30.34 in 7.0 mi ENE 10.4 mph - N/A   Clear
3:55 PM 55.4 °F - 32.0 °F 41% 30.35 in 10.0 mi NE 5.8 mph - N/A   Clear
4:15 PM 55.4 °F - 32.0 °F 41% 30.35 in 10.0 mi NE 5.8 mph - N/A   Clear
4:55 PM 53.6 °F - 33.8 °F 47% 30.36 in 10.0 mi Calm Calm - N/A   Clear
5:15 PM 51.8 °F - 33.8 °F 50% 30.36 in 7.0 mi Calm Calm - N/A   Clear
5:35 PM 50.0 °F - 35.6 °F 58% 30.37 in 7.0 mi Calm Calm - N/A   Clear
5:55 PM 48.2 °F - 35.6 °F 62% 30.37 in 10.0 mi ESE 4.6 mph - N/A   Clear
6:15 PM 50.0 °F - 33.8 °F 54% 30.38 in 10.0 mi Calm Calm - N/A   Clear
6:35 PM 48.2 °F - 33.8 °F 58% 30.38 in 10.0 mi Calm Calm - N/A   Clear
6:55 PM 48.2 °F - 33.8 °F 58% 30.39 in 10.0 mi Calm Calm - N/A   Clear
7:15 PM 44.6 °F - 35.6 °F 71% 30.39 in 10.0 mi Calm Calm - N/A   Clear
7:35 PM 44.6 °F - 35.6 °F 71% 30.39 in 10.0 mi Calm Calm - N/A   Clear
7:55 PM 42.8 °F - 35.6 °F 76% 30.39 in 10.0 mi Calm Calm - N/A   Clear
8:15 PM 41.0 °F - 35.6 °F 81% 30.40 in 10.0 mi Calm Calm - N/A   Clear
8:35 PM 41.0 °F - 37.4 °F 87% 30.40 in 10.0 mi Calm Calm - N/A   Clear
8:55 PM 41.0 °F - 37.4 °F 87% 30.39 in 10.0 mi Calm Calm - N/A   Clear
9:15 PM 41.0 °F - 37.4 °F 87% 30.39 in 10.0 mi Calm Calm - N/A   Clear
9:35 PM 41.0 °F - 37.4 °F 87% 30.38 in 10.0 mi Calm Calm - N/A   Clear
9:55 PM 42.8 °F - 37.4 °F 81% 30.39 in 7.0 mi Calm Calm - N/A   Clear
10:15 PM 42.8 °F - 37.4 °F 81% 30.38 in 10.0 mi Calm Calm - N/A   Clear
10:35 PM 44.6 °F - 37.4 °F 76% 30.38 in 7.0 mi Calm Calm - N/A   Clear
10:55 PM 46.4 °F 45.2 °F 37.4 °F 71% 30.37 in 10.0 mi NE 3.5 mph - N/A   Clear
11:15 PM 46.4 °F 43.5 °F 37.4 °F 71% 30.37 in 10.0 mi NE 5.8 mph - N/A   Clear
11:35 PM 46.4 °F 44.3 °F 37.4 °F 71% 30.37 in 7.0 mi NE 4.6 mph - N/A   Clear